Theta_e
309 309 309 309 309 309 309 309 309 309 309 309 309 308 308 307 307 307 307 307 307 307 307 307 307 311 315 315 315 315 315 314 314 315 318 318 316 317 316 316 315 314 312 313 317 316 314 314 314 314 316 319 320 323 321 322 327 330 331 325 324 328 327 331 327 319 322 323 319 318 319 318 319 319 316 314 316 317 317 317 317 316 313 311 312 311 309 308
309 309 309 309 309 309 309 309 309 309 309 309 309 309 309 308 308 307 307 307 307 307 307 307 306 308 312 315 316 316 315 314 315 316 317 317 317 319 317 316 314 313 312 312 316 316 315 317 314 314 319 322 322 321 321 323 325 329 331 325 328 334 331 327 321 319 320 318 320 320 320 318 318 320 316 315 319 317 316 317 317 317 314 309 308 308 307 307
310 310 310 309 309 309 309 309 309 309 309 309 309 309 309 308 308 307 307 307 307 307 307 307 306 307 309 314 316 315 316 318 323 322 319 317 317 319 319 316 314 312 312 314 317 317 316 317 314 315 319 321 323 323 324 323 323 328 329 328 335 335 326 322 319 320 319 318 320 319 318 317 317 318 315 316 319 318 318 317 316 318 316 311 307 305 305 305
310 310 310 310 310 310 309 309 309 309 309 309 309 309 308 308 308 308 307 307 307 307 307 307 307 307 307 313 315 315 319 323 327 325 319 320 319 319 319 316 313 311 312 314 318 318 316 316 314 316 318 319 323 324 326 324 322 325 325 327 334 327 320 322 320 319 320 318 319 319 318 317 317 316 316 317 317 317 317 315 316 318 316 312 307 305 304 304
311 310 310 310 310 310 310 310 309 309 309 309 309 309 309 308 308 308 308 308 308 308 308 307 307 307 308 313 315 317 319 318 321 321 317 319 319 319 318 315 313 311 312 313 316 316 315 315 314 317 317 319 322 323 327 326 320 322 322 323 326 322 320 321 320 321 320 318 317 318 317 317 317 316 316 317 316 317 317 316 315 316 316 313 308 305 304 304
311 311 311 311 311 310 310 310 310 310 309 309 309 309 308 308 308 308 308 308 308 308 308 308 308 307 310 314 315 317 317 313 319 320 317 317 317 318 316 313 312 310 312 313 314 315 315 315 315 318 319 318 321 321 324 323 319 321 322 320 321 320 319 318 319 321 319 316 318 318 316 316 316 317 317 317 315 315 317 319 317 315 314 311 308 305 305 305
312 311 311 311 311 311 310 310 310 310 310 310 309 309 309 309 308 308 308 308 308 308 308 308 309 308 310 315 318 322 323 320 321 319 317 317 316 317 314 311 311 310 312 312 314 315 317 317 317 320 319 319 320 320 320 320 319 321 322 320 319 319 318 317 319 321 319 317 318 317 315 315 316 317 317 316 315 314 315 318 317 314 311 309 309 307 306 306
312 312 311 311 311 311 311 310 310 310 310 310 310 310 309 309 309 309 308 308 308 308 309 309 309 309 311 317 325 328 327 323 319 317 317 316 314 314 312 311 310 310 312 312 314 316 316 318 318 319 318 320 320 320 320 318 318 320 320 319 317 318 319 318 318 320 320 317 318 316 315 316 316 315 315 315 315 314 314 315 315 314 313 314 311 308 307 306
313 312 312 311 311 311 310 310 310 310 310 310 310 310 310 310 310 310 310 309 309 308 309 309 310 311 311 317 323 323 323 322 319 318 318 315 314 312 311 311 310 310 311 312 314 314 315 318 319 318 319 320 319 320 320 318 320 320 318 318 317 318 318 317 317 318 319 318 316 315 316 315 314 314 314 314 314 314 314 314 315 314 315 317 314 309 308 307
313 312 312 311 311 311 311 310 310 310 310 310 310 310 310 311 310 310 310 310 309 308 308 310 311 311 312 316 320 319 318 320 319 318 317 315 313 311 311 311 311 310 311 313 313 312 315 317 319 318 318 318 317 319 319 318 320 318 317 317 317 317 317 316 316 317 317 317 316 316 316 315 314 314 315 315 315 315 315 314 314 314 314 315 315 311 308 308
313 312 312 311 311 311 311 310 310 310 310 310 310 311 310 311 311 311 311 311 310 309 309 310 311 312 315 318 321 320 317 317 317 316 315 315 314 312 312 312 313 311 311 313 313 313 314 315 317 317 316 316 317 318 319 317 316 316 316 317 317 316 316 316 316 315 315 316 317 315 315 315 314 314 314 315 316 316 316 316 314 314 314 314 314 312 309 308
313 313 312 312 312 312 312 312 312 311 311 311 310 310 310 310 311 311 312 311 311 310 309 311 311 312 317 320 322 319 316 316 317 315 314 314 313 313 312 313 314 312 312 314 314 314 315 315 316 316 316 316 317 317 317 315 314 316 316 316 317 316 316 316 316 316 315 316 317 314 315 316 315 315 315 314 314 315 316 317 316 314 314 314 313 312 311 309
313 313 313 312 312 312 313 313 313 313 312 312 311 311 310 310 310 310 311 311 311 310 309 311 311 311 317 322 320 316 316 316 316 315 314 313 312 313 312 313 313 312 313 314 315 317 316 315 316 317 317 316 317 316 314 315 315 316 316 316 317 317 318 317 315 317 315 315 317 314 316 318 317 315 314 314 313 314 314 316 316 315 314 313 313 312 311 310
313 313 313 312 312 313 313 313 313 313 312 313 312 312 311 310 309 309 310 311 311 310 310 311 311 313 318 322 317 315 317 316 315 315 313 312 312 312 311 312 312 311 311 312 314 316 315 314 315 315 315 316 316 314 315 316 316 316 316 317 318 317 321 318 316 318 316 315 315 315 316 317 317 315 315 316 314 313 314 314 314 315 314 313 314 312 312 311
313 313 313 313 313 313 313 312 312 312 312 312 313 313 312 311 310 308 309 311 311 310 311 311 312 317 321 322 317 316 316 315 315 315 314 313 312 313 312 310 311 311 312 312 313 314 313 313 314 316 316 315 314 315 318 320 319 317 317 320 322 319 319 318 317 318 316 315 313 315 317 315 315 315 315 316 315 313 314 315 314 314 313 313 314 312 312 311
314 313 313 313 313 313 312 312 311 310 311 312 313 313 312 311 310 308 308 310 310 310 311 312 314 317 318 318 316 316 315 314 315 315 314 314 313 315 313 311 312 312 313 312 312 312 312 313 314 316 317 315 316 317 318 321 323 321 317 319 322 320 317 318 320 319 316 316 313 314 318 317 317 317 316 316 316 315 314 315 315 313 312 312 313 312 312 312
314 314 313 313 313 312 312 311 310 309 310 311 312 312 313 312 310 309 309 310 311 310 312 316 317 315 314 314 315 316 316 314 315 314 314 313 314 314 313 312 311 311 312 311 312 311 312 314 314 316 316 316 318 320 319 320 322 322 320 318 319 320 317 318 322 319 316 316 314 314 315 316 317 318 317 316 316 316 315 315 316 314 312 312 312 312 312 311
315 314 314 313 313 312 311 311 310 310 311 311 312 313 313 312 310 310 310 312 314 313 313 318 317 315 315 316 316 317 317 315 315 315 314 313 314 314 313 312 311 311 312 312 313 313 313 315 316 317 318 317 317 318 320 319 318 320 322 321 320 319 317 317 319 318 315 315 316 314 314 314 314 314 314 314 315 315 316 316 315 315 313 312 312 312 312 311
315 314 314 313 313 312 312 311 310 310 311 311 311 312 314 316 315 314 313 315 318 317 316 318 318 317 317 319 317 316 317 316 316 315 314 313 313 314 313 312 312 312 313 316 316 314 314 316 317 319 319 317 315 315 317 316 315 318 319 319 319 318 316 315 316 318 317 316 316 316 314 314 314 313 313 313 313 313 314 314 314 313 313 313 312 312 312 312
316 314 314 313 313 313 312 311 310 311 311 312 313 314 318 322 320 317 317 319 320 319 318 318 317 318 317 318 317 316 317 315 316 316 314 313 312 312 312 312 313 314 315 320 321 316 315 317 320 320 317 315 315 314 314 315 315 316 316 316 317 316 315 315 317 318 317 316 317 317 315 314 314 314 313 313 313 313 313 313 313 313 313 313 313 313 312 313
316 315 315 314 313 313 313 311 311 313 313 313 314 316 319 319 318 318 316 317 317 315 318 317 314 315 316 317 316 315 317 316 314 315 313 312 311 312 313 312 315 315 314 318 322 319 316 317 319 318 316 315 315 315 314 314 314 315 316 316 316 317 317 316 317 319 317 316 316 317 316 315 314 313 313 313 313 313 314 313 313 313 313 313 313 313 313 313
317 317 316 315 313 314 313 312 313 314 313 312 313 315 315 311 312 313 311 315 315 311 315 316 314 314 313 314 316 314 316 316 315 316 314 311 311 313 314 312 315 316 314 315 318 318 317 317 316 315 315 315 315 315 315 315 315 316 316 317 318 318 317 316 317 319 315 315 320 320 316 314 314 314 313 313 313 313 314 314 315 314 314 314 313 314 313 314
318 318 317 316 314 314 314 313 314 314 313 312 313 313 311 308 307 309 311 317 318 313 313 314 314 314 314 313 315 314 315 315 315 317 314 311 311 314 313 312 313 315 316 315 315 316 317 317 315 314 315 316 315 315 316 316 316 316 317 317 318 317 317 315 317 320 316 316 322 321 317 314 314 314 313 314 313 314 314 315 315 315 315 315 315 315 314 314
319 318 318 317 315 315 314 314 315 313 312 314 313 310 309 308 306 309 314 318 318 315 313 312 311 313 314 313 313 315 316 314 314 315 313 311 312 313 313 313 313 314 315 315 315 315 315 317 319 317 315 316 316 316 316 316 315 317 318 318 317 317 318 316 316 320 319 319 320 317 316 316 316 316 315 315 315 314 315 314 315 315 315 316 315 316 315 315
319 319 319 318 317 316 314 315 315 312 312 314 312 310 309 308 306 308 313 318 317 315 313 311 310 311 312 313 313 314 314 313 314 314 312 311 312 313 313 312 312 313 313 313 314 314 313 317 321 319 317 318 317 316 318 319 316 316 320 320 318 318 318 318 318 317 320 324 320 317 320 320 320 320 317 316 317 315 315 314 315 315 314 315 314 314 315 315
318 319 319 319 318 316 315 316 314 311 314 314 312 312 310 308 307 307 311 316 317 315 312 312 312 312 313 313 313 313 313 313 313 312 312 312 312 313 313 313 313 313 313 314 314 314 313 316 319 319 320 321 320 319 321 321 316 316 323 325 321 320 320 320 320 319 324 329 322 318 323 322 321 321 319 318 319 318 317 316 316 314 314 315 314 314 314 315
318 318 320 319 318 316 316 316 314 313 315 315 312 311 310 308 307 307 311 315 317 316 315 314 312 312 314 312 312 313 314 314 312 311 311 311 312 313 313 314 313 312 314 315 315 316 315 315 319 319 319 321 320 319 322 323 318 318 326 330 325 323 323 323 324 325 327 327 321 319 322 322 321 320 319 319 319 319 318 317 317 315 315 316 315 315 315 317
319 319 320 320 319 317 315 315 314 313 314 313 311 310 310 308 308 310 312 315 319 319 317 315 311 311 313 312 312 312 312 312 314 312 308 309 311 312 314 313 313 314 316 317 316 318 320 319 322 322 320 321 319 318 323 323 319 320 324 328 326 324 325 325 324 326 327 323 321 322 320 321 320 317 317 317 316 317 316 316 316 315 317 317 316 315 315 318
320 319 320 319 319 317 316 315 314 313 313 312 311 310 310 307 307 312 316 316 317 316 315 314 312 313 314 312 313 314 311 310 313 311 307 309 311 311 313 312 312 313 314 315 315 317 320 318 319 323 321 319 321 325 327 324 320 321 321 324 328 328 325 322 320 322 325 322 321 323 320 320 319 315 316 317 315 317 315 315 315 314 317 317 316 315 315 319
321 320 320 320 318 318 317 316 315 315 314 312 311 310 309 309 309 313 316 315 314 315 313 311 312 314 315 314 314 314 313 311 311 310 310 311 310 310 311 310 312 317 317 316 315 315 315 313 315 321 320 320 325 324 319 320 320 318 319 322 328 332 328 326 326 324 322 320 320 324 321 318 319 317 317 318 317 318 316 315 316 314 315 316 315 315 314 317
323 322 322 320 319 318 316 316 316 315 313 312 311 310 310 313 315 316 315 312 312 316 314 312 313 315 314 316 317 314 313 313 311 311 312 312 311 311 312 311 315 321 321 317 316 315 314 313 316 321 321 322 323 318 315 318 318 317 322 324 326 332 330 327 325 322 320 320 320 323 322 318 318 318 317 316 316 317 315 316 317 316 315 314 314 315 313 315
323 323 323 321 320 319 317 317 316 314 313 312 311 311 313 314 315 315 315 313 315 318 318 319 317 315 314 315 318 316 314 315 312 311 315 315 315 314 312 314 317 318 320 320 317 316 316 315 316 318 318 320 320 319 320 321 317 317 323 324 322 325 325 322 323 323 322 322 320 320 320 318 317 316 316 316 317 317 316 316 316 317 317 314 314 315 313 317
322 323 322 321 320 319 318 318 316 314 313 311 311 313 316 317 316 316 314 314 317 317 320 325 321 318 318 317 320 320 316 317 313 310 314 315 315 315 313 315 318 317 319 322 319 320 322 319 316 315 315 318 318 318 319 320 318 317 320 321 321 322 321 322 327 326 320 322 323 318 317 320 318 320 320 316 316 318 317 316 316 317 318 315 315 315 315 319
322 322 321 321 320 319 319 318 317 316 313 312 314 314 315 317 318 319 317 315 315 316 319 324 321 317 318 320 324 322 317 319 316 311 314 315 314 318 317 314 315 316 317 318 320 323 323 320 317 318 319 319 316 315 317 322 320 315 318 321 320 324 326 324 326 323 318 326 328 317 319 325 320 321 324 319 315 316 315 316 316 315 316 315 314 317 320 322
321 321 320 320 319 319 319 317 317 316 313 314 318 316 315 318 319 319 320 318 315 314 315 319 320 319 321 323 326 323 317 320 319 314 315 316 317 322 323 317 313 314 315 317 322 323 320 320 319 317 319 318 316 315 317 322 322 317 320 320 317 322 324 319 321 321 317 323 324 317 322 327 319 317 320 318 316 316 314 315 315 314 314 314 313 318 324 324
321 320 320 319 317 318 318 317 317 315 313 316 318 315 315 320 321 318 318 316 313 312 313 316 320 321 323 325 326 324 319 319 320 317 316 316 318 321 322 318 313 312 314 317 323 321 317 323 322 314 315 316 314 316 317 319 321 318 319 319 317 320 321 318 323 324 317 318 319 318 321 322 317 316 316 315 316 316 314 314 313 313 314 315 313 318 327 325
319 319 318 317 318 318 317 317 317 314 313 317 317 315 317 318 317 315 314 313 312 313 315 315 318 320 321 323 325 324 321 320 319 318 319 318 318 318 318 318 316 313 312 314 320 321 318 319 320 316 317 315 310 313 317 316 318 319 321 320 317 319 321 321 324 325 321 319 320 318 317 316 315 317 317 317 316 315 315 314 313 313 314 314 313 320 329 325
318 318 317 318 318 318 317 317 315 312 313 316 316 316 318 317 315 313 313 314 315 316 316 315 316 319 319 317 319 319 320 322 319 319 322 320 318 319 317 318 317 314 312 312 316 322 320 316 318 317 317 316 312 314 317 315 314 318 320 319 318 322 324 323 322 322 321 319 318 316 315 313 313 314 314 314 316 317 316 314 313 312 312 313 313 318 324 320
317 318 318 318 318 318 318 316 313 312 313 315 315 316 318 317 315 315 315 315 315 316 316 316 316 317 317 315 315 315 316 319 319 319 320 320 319 319 317 317 318 315 312 312 313 318 318 316 318 316 313 315 313 315 321 319 315 315 316 317 317 319 323 324 321 320 320 318 318 317 316 314 315 316 314 313 316 317 315 314 313 313 312 312 312 316 320 320
316 318 318 317 317 317 316 313 312 313 314 314 315 315 316 316 316 316 315 314 316 316 316 317 318 318 318 317 315 316 315 316 318 317 318 318 318 318 317 315 317 318 315 313 313 315 316 316 317 316 313 314 313 315 321 323 319 317 317 319 316 315 319 321 317 318 318 317 317 317 316 315 318 319 316 316 319 316 315 315 314 314 313 312 313 315 319 320
316 318 317 315 316 315 313 312 313 314 315 315 315 315 314 315 316 316 315 315 317 317 315 317 319 320 319 320 319 319 319 319 319 318 318 319 318 318 318 316 317 319 318 317 317 317 319 319 317 317 316 316 316 317 319 320 319 319 317 318 318 316 317 318 316 318 318 316 316 317 317 315 316 320 320 321 323 320 318 316 313 314 314 313 313 315 316 319
313 317 316 315 315 313 312 314 314 314 315 315 315 315 314 314 315 315 315 315 316 315 313 313 316 318 318 319 320 320 320 320 320 320 320 319 317 317 317 318 318 316 316 319 322 321 322 321 318 317 318 320 319 317 316 316 315 316 317 318 318 316 315 316 316 317 316 316 316 316 317 316 314 317 319 319 321 322 320 317 315 316 316 314 313 314 316 318
312 315 314 313 314 313 314 316 315 314 314 314 314 315 314 314 315 315 314 315 315 315 314 313 313 315 316 317 318 318 319 320 320 320 319 318 316 315 314 315 316 315 314 319 322 320 319 320 318 317 320 325 324 318 315 313 311 314 316 316 316 315 314 315 315 316 316 316 316 316 317 317 314 316 319 318 319 320 317 316 317 318 316 315 314 316 321 323
311 313 313 313 312 313 316 319 317 315 314 313 314 315 314 313 314 315 315 315 315 315 315 315 314 314 315 316 316 317 318 319 318 319 319 318 317 315 314 313 314 315 314 316 320 318 317 319 320 319 319 322 322 320 317 313 311 313 315 314 314 314 314 314 314 316 316 315 315 316 315 315 314 316 318 317 316 316 314 313 315 315 314 315 317 320 323 324
309 311 313 312 311 312 316 318 318 317 316 314 315 315 314 314 314 314 314 314 315 315 315 316 317 315 314 315 316 316 317 318 319 319 319 318 317 315 315 314 313 313 313 315 317 316 316 318 319 319 319 320 320 319 320 318 313 313 315 314 313 315 315 314 315 316 315 315 315 315 315 314 313 313 314 313 312 313 312 312 313 314 314 317 319 322 322 321
307 309 312 313 311 311 314 315 316 317 316 315 315 314 315 315 314 313 313 313 313 313 313 316 318 316 314 315 315 315 315 316 317 318 318 317 316 315 315 314 313 312 313 318 318 314 315 317 317 317 318 319 319 318 319 320 315 313 315 315 313 314 314 314 316 316 315 315 315 315 314 314 314 313 312 312 312 312 311 312 312 312 313 315 317 320 320 319
305 307 311 313 312 313 314 314 315 316 316 316 316 315 315 315 314 314 314 313 314 313 313 314 315 314 315 315 315 315 315 315 315 315 315 315 314 314 315 315 314 313 314 317 317 314 314 314 315 316 316 317 317 316 316 317 315 314 315 314 313 314 314 314 315 315 315 316 315 315 315 315 314 313 312 312 312 311 311 311 311 311 311 312 313 316 317 316
303 305 308 310 310 312 314 312 311 312 314 315 314 314 315 315 315 315 314 314 313 313 314 315 314 314 315 315 316 316 315 315 315 314 313 313 313 313 314 314 314 314 315 315 313 313 313 313 313 314 315 315 315 315 315 315 314 314 314 313 313 313 313 313 313 313 313 314 314 313 314 314 313 311 312 312 311 311 311 311 311 311 311 311 312 313 315 313
301 302 303 305 306 308 308 307 306 308 310 311 311 312 313 313 312 313 313 314 314 314 314 315 315 315 314 314 316 316 316 316 316 316 315 315 315 314 314 314 314 314 314 312 311 313 314 313 313 313 313 314 314 314 314 314 314 314 314 313 313 312 312 312 312 311 312 312 312 312 312 312 312 311 311 311 311 311 311 311 311 311 311 311 311 311 311 311
300 301 301 302 302 303 303 303 304 306 307 308 309 310 310 311 311 312 312 313 313 313 314 315 315 314 314 314 315 315 315 315 316 315 315 315 315 315 314 315 315 314 311 310 310 311 312 313 313 313 313 313 313 313 313 313 314 313 313 313 313 313 313 312 311 311 311 311 311 311 312 311 311 311 311 311 311 311 311 311 311 310 311 311 311 311 311 310
299 300 300 300 300 300 301 302 303 305 305 307 309 309 310 311 311 310 310 311 312 313 313 313 312 311 311 312 313 313 312 311 310 311 312 312 312 313 313 314 315 314 311 310 310 310 309 311 311 312 313 313 313 313 313 313 313 313 313 313 313 313 313 312 312 312 312 312 312 312 312 311 310 310 310 310 311 310 310 311 310 311 311 311 311 311 311 311
297 298 298 299 299 300 300 301 301 302 303 304 305 306 307 307 307 306 308 310 310 309 308 307 307 307 308 309 310 308 305 305 306 307 308 309 310 310 311 312 313 314 312 310 310 310 309 309 311 313 314 314 314 314 313 312 313 313 313 312 312 313 313 312 312 312 311 312 313 313 313 311 310 311 310 310 311 310 311 311 311 311 311 311 311 311 312 312
Wind_Speed
12 12 12 13 13 13 13 13 13 14 13 13 13 13 13 13 13 14 14 15 15 14 13 13 11 9 8 8 8 8 9 9 11 10 10 11 10 7 7 6 5 5 4 3 4 4 3 3 6 7 4 2 1 1 2 1 2 4 3 2 3 3 4 5 4 3 2 2 4 4 4 6 3 3 0 1 0 1 2 3 4 3 3 3 8 16 26 33
13 13 13 14 14 14 14 14 14 14 14 14 13 13 13 13 13 13 13 14 15 15 14 14 12 10 8 8 9 9 9 8 9 13 17 18 14 11 9 8 7 6 5 4 6 6 5 2 7 6 2 1 2 1 1 1 1 3 3 2 4 5 5 4 4 4 2 3 4 4 5 6 5 4 2 2 5 2 4 5 3 4 2 5 11 21 29 33
14 14 14 15 15 15 15 15 15 15 15 14 14 13 13 13 13 13 13 13 14 14 15 14 13 12 9 8 9 9 8 6 5 10 15 15 17 16 12 11 9 7 7 5 5 6 5 3 5 6 3 1 3 1 1 2 1 2 3 2 6 7 5 6 4 3 3 3 2 2 2 4 5 4 3 3 5 4 8 7 5 8 8 6 9 17 25 28
14 15 15 16 16 16 17 17 16 16 16 15 15 14 14 13 13 13 13 13 14 14 14 14 13 12 10 8 8 8 6 4 3 5 7 6 11 15 14 13 9 8 7 6 6 7 7 6 3 5 4 3 3 2 2 4 2 2 4 5 7 4 4 8 6 2 2 1 2 2 2 3 4 4 4 4 3 6 9 9 10 12 12 11 9 13 21 22
14 15 16 16 17 17 17 17 17 18 17 16 16 16 15 14 13 13 13 13 13 14 14 14 13 12 9 6 6 6 4 4 3 3 4 3 5 12 15 13 11 10 8 8 8 6 6 6 2 1 2 3 2 1 3 6 4 2 5 8 8 4 5 7 5 2 2 3 1 2 3 5 3 3 5 7 7 9 7 8 12 13 11 13 14 15 17 17
15 15 15 16 16 17 17 17 18 18 18 18 17 17 16 15 15 13 12 12 13 13 14 14 13 11 7 4 3 3 2 1 3 2 4 3 3 10 13 12 11 9 9 9 7 3 3 2 1 0 1 2 3 4 6 6 5 4 6 6 8 7 6 6 4 3 3 2 2 3 3 3 2 4 5 9 14 12 6 7 10 11 11 16 18 15 15 15
15 15 15 16 16 17 17 17 18 18 18 18 18 17 17 16 16 14 13 12 12 13 13 13 13 10 4 1 1 2 2 5 9 7 7 3 4 9 12 12 10 9 9 9 6 3 3 2 2 3 2 3 5 6 7 4 6 7 7 5 7 7 7 8 5 5 5 5 6 2 1 3 5 6 3 9 17 14 8 6 7 7 7 14 15 14 16 17
16 16 16 16 16 16 17 17 18 18 18 18 18 18 17 16 16 15 14 13 12 12 12 12 11 7 2 2 1 3 1 7 11 9 7 4 5 9 12 11 9 9 10 11 9 6 3 3 5 3 2 4 4 4 5 2 2 8 7 5 5 6 7 8 5 5 6 6 5 1 5 8 9 4 5 15 18 10 9 9 8 8 5 11 14 16 16 16
17 17 18 17 17 17 17 18 18 18 18 18 19 18 17 16 16 16 15 14 12 12 12 11 10 5 3 3 3 2 4 7 9 7 6 4 6 9 12 11 10 11 9 11 11 7 3 3 5 4 3 4 3 5 3 0 3 7 6 5 4 6 7 7 7 7 6 5 3 3 10 10 6 3 8 21 19 10 9 8 10 10 7 9 12 15 15 15
18 18 18 18 18 18 19 19 19 19 19 19 19 18 17 16 16 16 15 14 13 12 12 10 9 4 3 3 4 1 6 6 6 6 5 6 7 10 12 11 11 12 10 9 11 9 6 5 4 4 3 3 3 4 2 3 4 3 3 5 6 7 7 6 9 9 6 5 5 8 12 9 3 2 9 18 11 7 9 10 10 9 11 11 10 12 14 15
18 18 19 19 19 19 19 20 20 20 20 20 19 19 18 16 16 15 14 13 12 12 11 9 8 4 3 3 4 4 7 6 7 6 5 6 8 10 12 12 11 13 11 7 10 12 10 7 3 3 2 2 2 5 4 3 2 2 3 7 10 7 8 9 11 10 4 5 8 9 8 8 1 4 15 18 5 4 8 10 10 9 11 11 10 11 10 12
17 18 19 19 19 20 20 21 21 21 21 21 21 20 19 17 16 16 15 13 11 11 9 7 7 5 3 1 5 10 10 8 9 7 6 7 8 10 11 12 12 13 12 7 7 11 10 7 4 4 4 1 1 3 4 2 2 3 2 6 12 7 9 15 13 9 6 5 7 7 5 9 6 12 21 20 8 3 6 8 10 10 11 10 10 9 9 12
16 17 19 19 20 20 21 22 22 23 23 23 23 22 20 18 17 17 16 13 11 10 8 7 7 6 3 2 8 13 14 14 12 9 9 8 8 9 10 12 12 12 12 8 6 6 7 6 5 6 4 1 2 2 1 1 2 3 0 2 9 7 8 14 8 7 7 5 8 8 3 9 11 17 19 16 11 8 8 10 10 9 9 10 9 9 10 11
16 18 18 19 20 21 22 23 23 24 24 24 24 22 21 19 17 16 15 15 12 9 8 6 6 5 3 4 9 11 14 14 13 12 11 10 8 8 10 11 11 11 12 10 7 5 5 5 4 2 2 2 3 3 3 4 1 3 2 1 4 3 8 10 3 4 4 4 9 9 4 10 14 16 12 12 11 8 10 12 11 9 9 9 9 9 11 11
16 18 18 19 20 21 23 24 25 25 24 25 24 22 21 19 18 16 15 14 11 8 7 5 7 5 1 6 9 8 11 11 13 16 13 11 10 8 8 10 9 8 8 8 6 5 5 4 3 1 3 1 1 2 4 4 2 1 1 4 3 4 8 11 5 6 7 4 6 9 4 10 15 17 11 9 9 8 10 12 11 11 11 10 9 9 11 11
17 17 18 19 20 22 24 26 26 26 25 25 24 22 20 18 18 17 15 14 10 8 6 4 8 6 1 4 4 5 8 9 11 14 12 12 12 7 7 8 7 6 6 6 5 4 5 4 1 2 2 1 2 3 2 4 4 1 3 6 6 5 6 8 7 6 8 5 4 9 6 7 10 12 10 7 7 9 10 11 12 12 12 11 10 9 10 11
16 17 17 18 20 22 24 26 26 25 25 25 25 23 20 17 17 17 13 8 6 7 8 4 3 4 2 3 3 5 7 9 10 12 13 13 12 8 8 7 5 6 4 2 3 3 3 2 1 1 0 2 3 5 2 4 6 3 3 5 6 7 5 5 7 4 6 8 7 11 9 11 11 9 9 7 5 7 9 11 12 12 11 10 10 10 11 11
14 15 16 17 20 22 24 25 24 23 24 24 23 23 21 16 13 11 5 6 5 3 4 3 1 2 4 5 6 4 5 9 10 12 14 14 12 11 10 4 3 6 4 1 1 3 2 0 2 1 2 2 4 5 4 8 8 5 5 4 5 7 6 9 8 2 6 7 7 8 9 15 18 13 13 13 6 6 9 10 11 12 11 10 10 11 12 12
13 14 14 16 19 21 24 24 23 23 23 22 21 19 16 9 5 1 5 8 5 3 2 5 5 3 4 6 7 4 5 8 10 11 13 13 12 11 7 3 3 6 4 0 2 3 4 1 3 2 4 7 7 8 12 13 9 8 8 6 6 7 7 11 10 6 8 5 6 10 12 16 18 17 16 17 11 8 9 9 10 11 11 11 10 11 13 13
13 13 13 16 18 21 24 23 23 22 21 21 20 15 7 3 3 1 2 3 5 5 3 4 8 5 4 2 4 6 6 8 7 8 12 14 13 9 4 1 3 3 4 4 3 3 5 4 4 7 10 11 10 12 16 14 9 9 9 8 9 8 10 12 11 7 8 6 7 13 15 16 17 18 17 15 11 10 11 11 12 12 12 12 13 14 15 15
13 13 14 15 18 21 23 24 22 18 16 16 16 9 2 2 2 3 3 5 10 13 11 8 12 11 8 3 8 11 6 4 5 6 13 15 13 8 3 3 3 4 6 5 2 2 4 6 9 13 15 12 10 12 13 11 10 11 10 9 9 8 12 13 10 7 6 5 8 11 14 16 16 17 16 12 9 12 15 13 14 15 14 13 14 17 17 15
13 14 15 15 17 19 22 24 18 13 15 15 12 5 2 4 3 2 2 4 9 13 13 12 13 13 12 10 10 11 4 4 7 5 13 14 10 7 4 5 7 6 5 4 3 4 4 7 13 15 13 9 8 8 9 10 11 10 8 8 8 6 10 11 8 6 3 5 7 9 11 13 14 16 15 12 10 13 16 14 15 16 14 13 15 17 18 15
13 14 15 15 17 18 21 22 13 10 16 15 10 5 4 8 6 2 1 2 7 9 8 10 13 10 11 14 11 11 6 9 10 7 17 16 6 6 5 7 9 4 5 8 8 7 6 8 12 13 9 10 11 8 8 9 7 8 8 7 8 7 7 9 6 3 3 4 5 6 9 9 9 12 13 14 14 14 15 15 15 15 14 16 18 17 17 16
13 14 14 14 17 18 21 19 9 11 18 12 6 6 9 11 6 3 1 2 5 7 8 12 12 8 13 14 12 15 10 9 8 7 19 18 5 3 5 7 7 4 7 12 13 14 12 7 8 12 11 12 13 10 8 7 8 11 10 8 10 10 11 12 8 4 3 4 4 5 9 8 8 13 15 13 12 13 14 16 16 16 16 16 17 18 19 17
13 13 13 14 15 18 20 13 7 16 17 6 4 8 13 11 6 4 2 3 4 4 6 8 7 7 13 12 14 14 4 5 6 5 17 18 9 4 3 4 5 7 11 11 12 13 12 6 7 9 10 12 12 10 8 7 9 11 8 11 14 14 13 13 9 6 5 6 4 2 7 9 8 13 16 9 8 10 10 13 16 16 16 15 15 17 18 15
14 13 12 13 14 17 16 6 9 18 11 2 6 11 14 10 7 4 2 2 4 3 1 2 3 5 7 6 9 6 4 5 5 4 14 15 10 5 2 3 2 6 8 7 6 5 7 8 9 10 10 11 10 7 8 11 9 10 6 11 14 12 11 11 7 4 3 6 3 3 2 8 5 7 10 7 7 10 9 11 14 13 13 13 13 14 14 10
14 13 12 12 13 15 9 4 13 15 4 3 11 13 12 8 5 3 1 3 5 2 2 1 0 2 3 2 5 7 1 5 1 4 7 8 7 4 3 6 3 3 5 3 4 3 5 6 8 13 11 9 8 8 9 11 8 8 4 8 10 9 9 8 6 5 4 4 3 2 3 7 11 6 9 11 11 12 12 11 12 11 12 15 15 13 12 9
13 14 13 12 12 13 8 9 14 9 3 8 14 12 10 6 3 1 2 3 4 3 2 2 1 1 0 2 1 5 2 2 3 1 3 1 3 3 6 9 6 4 4 5 6 5 3 4 7 11 8 7 8 8 8 11 8 6 2 5 5 5 5 3 3 5 2 3 4 4 5 4 14 8 8 11 11 11 13 14 14 13 14 16 15 14 12 9
14 13 13 13 12 12 11 11 10 7 8 11 12 10 7 4 2 4 2 4 3 2 1 0 0 2 2 2 2 1 2 3 1 3 4 2 1 2 4 6 3 4 4 5 8 6 1 4 6 7 6 8 6 2 5 9 7 3 4 3 4 3 2 4 1 1 2 4 6 7 7 3 14 11 5 5 7 10 11 12 14 13 14 16 14 12 12 8
15 13 14 13 12 12 10 10 11 9 8 9 11 9 5 3 2 4 3 5 2 1 1 1 1 1 4 4 3 3 1 2 1 2 3 1 3 4 0 1 2 2 5 3 7 8 2 1 2 4 4 6 4 3 1 3 3 1 5 5 6 5 5 4 1 4 2 8 6 10 12 9 10 10 4 5 6 11 10 8 10 10 12 15 13 11 12 9
17 14 15 17 16 13 6 6 10 8 5 6 9 5 2 1 4 3 7 3 1 2 1 1 1 2 4 4 2 2 3 1 1 2 0 1 2 3 1 1 2 3 3 5 7 8 4 1 3 3 3 5 6 3 2 3 2 3 4 4 4 4 4 5 4 4 2 9 6 13 14 12 10 6 3 2 3 9 10 9 10 11 13 14 12 12 12 10
22 20 21 23 21 16 10 7 7 6 3 5 6 2 1 1 1 6 6 2 1 3 2 2 2 2 3 2 1 3 4 1 2 4 4 3 2 2 2 4 4 2 3 5 4 5 6 7 6 2 1 6 6 2 3 5 2 4 4 4 1 4 3 3 3 0 5 8 6 10 10 9 12 7 3 7 5 6 9 9 11 13 13 13 12 13 12 7
24 24 25 26 23 21 19 15 10 8 3 2 1 1 3 2 6 6 3 1 3 3 2 2 3 4 3 1 2 4 3 2 4 4 3 4 3 3 4 5 5 2 4 4 2 3 4 6 5 4 3 5 9 6 3 3 4 6 5 6 5 3 1 3 4 3 5 7 7 6 6 5 8 4 8 13 13 12 11 11 13 13 13 14 12 13 10 6
20 20 22 25 25 25 24 21 18 14 5 1 3 2 3 6 6 1 3 5 5 2 2 2 2 3 3 2 5 4 2 3 4 5 3 3 2 3 4 6 7 3 1 1 2 2 4 9 5 9 3 7 13 13 11 4 4 6 6 5 4 4 4 4 5 6 6 7 6 3 5 4 3 3 9 12 13 12 10 11 12 12 13 11 10 11 7 5
14 15 17 21 24 26 25 23 22 17 8 4 3 3 5 8 5 1 3 5 3 4 6 4 2 2 2 3 4 3 4 4 3 5 4 4 4 4 4 5 9 6 2 2 3 3 5 10 7 7 2 9 12 10 8 6 1 3 5 5 3 4 6 5 5 5 2 4 6 3 4 5 4 6 7 7 8 7 8 11 10 11 12 9 9 11 6 6
8 10 12 17 22 25 26 24 22 18 11 5 3 4 6 6 3 3 2 1 2 3 7 7 1 2 3 3 3 5 5 4 2 3 2 4 4 5 5 4 9 11 8 6 4 3 5 7 3 2 2 4 5 3 3 4 2 2 4 4 5 4 6 4 6 3 1 5 8 3 5 6 5 7 8 7 10 8 8 10 10 12 13 10 11 10 7 7
5 6 8 14 20 23 26 27 23 19 10 4 4 6 5 4 3 3 1 1 1 2 4 3 2 2 3 2 3 4 4 4 3 3 2 3 3 5 6 5 7 14 15 10 5 5 7 6 3 4 2 3 2 2 1 1 3 5 3 6 3 3 2 3 1 3 2 6 7 5 8 8 6 8 4 1 5 8 9 10 11 14 14 12 12 10 8 8
4 4 6 13 20 21 25 28 25 17 7 3 7 7 5 4 4 4 3 2 0 2 3 2 3 3 2 2 4 4 4 3 1 2 3 3 4 4 6 5 6 12 18 16 6 4 4 6 5 2 1 4 2 3 2 4 3 6 3 2 3 1 2 2 3 3 5 8 8 11 14 10 7 8 6 4 7 10 11 12 13 14 13 12 12 10 7 7
3 2 4 8 14 19 26 29 22 11 4 4 7 7 5 6 5 3 3 1 1 1 2 5 4 1 2 1 2 4 4 4 2 3 3 2 4 2 2 4 4 8 16 15 8 5 3 5 5 1 1 3 3 1 3 2 1 2 2 3 1 3 4 3 3 3 4 8 9 12 14 11 7 6 6 9 11 11 12 12 12 12 12 12 11 9 6 7
2 3 2 1 9 21 28 26 15 5 3 4 5 6 5 5 5 5 6 4 2 2 3 5 5 4 4 5 6 4 3 4 3 3 3 2 6 8 4 2 3 4 7 6 6 5 1 4 6 1 2 2 2 3 7 7 4 1 1 3 3 2 1 2 2 2 4 8 8 8 11 11 7 3 5 9 8 9 11 10 10 11 11 12 11 10 9 9
2 3 2 6 15 26 26 14 5 4 4 3 5 7 6 4 3 5 8 7 5 3 3 4 5 5 6 7 9 8 4 5 6 5 4 5 7 7 4 2 2 2 2 2 2 3 1 3 5 1 1 4 7 6 8 11 10 7 6 6 6 5 3 5 6 5 4 5 7 8 9 11 8 1 3 7 6 7 9 9 10 10 10 12 13 13 12 10
3 4 3 13 26 30 19 5 3 4 3 4 5 5 4 4 4 6 6 7 7 5 2 3 6 6 6 7 10 9 5 5 8 8 7 10 13 11 8 7 4 2 1 2 5 4 3 3 4 5 4 7 8 5 5 9 7 4 4 6 6 6 6 8 10 7 5 5 6 8 9 12 10 2 2 6 6 7 8 9 9 8 9 12 13 12 10 8
4 3 3 19 35 30 11 4 5 5 4 4 4 5 5 5 5 5 6 6 6 5 3 4 8 9 10 10 9 9 7 7 10 12 10 10 13 15 15 16 10 1 1 3 4 3 3 3 5 7 4 4 7 6 4 3 2 1 4 6 8 9 10 11 9 5 7 7 7 9 10 10 11 6 4 6 6 7 8 9 10 10 10 12 12 10 8 8
3 2 1 18 36 27 7 4 6 6 6 4 6 7 5 4 6 8 9 7 6 5 6 7 9 10 11 10 10 11 10 8 10 14 13 9 11 15 17 18 17 8 2 3 3 3 3 3 4 6 5 4 6 8 8 5 2 3 6 8 11 13 12 8 4 3 7 11 13 11 10 9 11 9 6 7 6 6 7 7 7 7 8 8 8 7 7 7
2 2 1 10 23 16 4 5 7 7 8 9 11 11 7 5 7 12 15 12 8 7 6 5 6 7 8 8 10 12 13 11 9 10 9 8 9 12 14 17 17 12 8 6 3 1 4 5 4 5 8 8 8 9 8 5 3 3 5 10 12 14 13 9 5 6 8 13 14 12 11 11 11 12 14 15 13 10 11 11 9 7 6 6 6 6 7 7
2 3 2 4 8 7 4 4 7 7 8 9 9 9 12 11 8 9 12 11 10 10 9 5 2 3 5 9 11 12 13 13 11 7 7 8 7 6 9 13 14 15 13 10 8 3 2 5 8 11 13 12 13 13 8 2 3 4 5 9 10 10 12 10 6 8 10 10 11 12 15 14 11 13 20 23 21 19 17 16 13 11 10 10 8 8 9 9
2 3 3 2 3 5 6 6 8 9 9 9 6 5 13 16 11 7 9 9 9 10 9 7 7 8 7 9 12 13 13 14 14 13 12 12 10 8 6 8 10 14 12 9 9 5 2 7 14 19 21 20 20 22 17 10 10 11 9 10 10 8 9 9 10 13 11 8 10 14 16 15 13 15 22 26 26 24 20 16 15 13 12 12 10 9 11 13
3 2 2 3 2 3 5 5 6 7 8 8 5 4 10 14 11 8 7 7 8 8 6 6 12 16 16 15 13 11 11 12 13 15 15 13 13 12 9 8 10 12 10 7 7 6 4 9 15 19 22 24 24 25 23 18 16 15 14 15 16 14 11 12 16 18 15 12 14 15 16 17 16 17 22 25 26 25 21 17 15 13 13 15 13 10 12 14
3 2 3 4 3 3 4 4 5 7 7 6 3 3 5 8 9 8 4 3 5 7 8 11 14 19 22 22 17 12 12 13 14 14 13 13 15 13 11 11 11 9 10 7 6 6 5 9 14 18 21 21 22 22 21 20 18 16 17 19 19 19 18 19 21 21 20 19 19 20 23 23 19 19 23 24 24 23 19 15 16 18 20 21 17 14 16 17
2 2 2 3 2 4 6 5 4 5 5 5 5 5 6 8 11 9 4 3 5 3 7 13 15 13 15 16 15 15 15 14 15 14 9 9 10 8 7 8 7 4 7 8 6 5 6 10 12 13 13 14 17 19 19 19 19 20 21 20 20 21 23 24 22 19 18 20 23 25 26 23 19 22 24 23 21 20 19 21 22 23 24 21 17 17 18 16
4 3 3 3 3 4 5 4 3 4 5 5 5 5 6 7 9 9 7 7 8 7 7 10 12 10 10 11 11 12 12 11 13 13 11 9 7 5 4 4 5 4 4 6 5 4 6 8 8 7 8 10 14 18 21 22 22 21 21 21 22 23 23 22 20 18 19 22 25 25 21 17 18 21 21 19 19 19 21 25 26 23 23 20 17 16 13 12
3 4 3 2 3 5 4 4 4 5 6 6 6 6 7 7 7 8 7 4 4 6 6 7 10 9 8 9 9 10 12 13 14 14 12 11 11 9 8 8 9 8 5 3 4 3 5 6 5 6 8 9 13 18 20 18 15 14 16 22 26 26 24 23 21 22 24 22 20 18 17 17 17 15 15 17 19 21 22 24 23 23 22 18 14 13 11 13
Wind_Direction
9 8 6 5 5 5 6 5 5 5 5 5 6 5 5 4 2 0 356 354 351 350 352 348 348 346 333 320 315 308 299 285 278 271 249 254 264 258 258 255 242 249 249 207 175 157 147 184 228 222 218 251 193 203 232 191 95 61 92 161 243 229 213 210 220 233 197 224 242 252 212 178 238 264 157 2 244 179 228 253 254 270 14 80 138 141 148 155
0 360 358 358 356 358 358 358 358 358 359 359 360 359 358 359 357 357 355 352 349 345 347 346 344 341 335 322 315 316 308 294 284 269 260 261 258 251 247 244 250 254 241 202 187 175 152 198 240 216 147 178 234 183 202 242 116 119 146 188 233 215 225 228 227 242 227 209 212 245 218 191 209 201 144 231 258 241 222 256 238 235 322 78 129 140 148 155
354 353 353 352 351 351 351 352 352 352 353 353 354 353 353 353 353 353 353 350 348 346 343 341 338 336 334 320 317 324 317 315 297 270 276 269 247 241 237 237 246 246 236 202 184 195 199 249 240 194 147 236 249 144 160 267 190 183 155 209 245 223 248 275 264 232 213 206 192 292 238 204 223 172 139 216 250 239 218 232 203 219 224 168 151 147 153 159
350 349 348 347 346 346 346 347 347 347 348 348 349 349 348 348 349 349 349 348 346 345 342 339 333 330 329 319 317 321 328 347 292 269 311 295 240 233 228 230 232 231 229 199 191 213 240 284 270 173 166 254 271 114 172 229 207 192 160 205 240 222 274 277 272 227 173 127 144 283 329 278 247 161 166 178 235 260 231 222 202 216 214 177 172 165 164 167
346 345 345 344 342 342 342 343 342 342 342 343 344 344 344 343 344 344 344 344 344 344 342 337 330 327 328 320 318 322 358 16 291 287 353 345 235 226 222 225 223 220 215 200 206 216 247 279 324 129 171 245 277 94 216 218 179 209 213 219 237 244 280 267 252 218 148 86 102 290 295 266 240 166 193 175 215 246 221 215 209 218 211 174 176 177 172 175
344 342 342 340 339 339 338 339 338 338 338 338 339 340 341 340 340 340 339 340 340 341 340 335 330 330 331 321 317 329 37 320 268 293 332 346 224 220 215 217 215 214 207 199 205 204 234 246 75 176 203 244 240 218 243 226 169 225 252 234 240 241 255 262 246 221 178 145 224 231 238 259 290 265 227 195 226 235 199 190 201 221 216 181 175 173 176 184
341 339 337 336 336 335 335 335 334 335 334 333 334 335 337 337 337 336 336 337 335 337 338 334 329 328 328 292 282 32 97 254 269 277 288 292 217 214 207 209 209 208 203 193 188 183 196 198 215 198 192 254 232 225 257 252 175 213 257 263 258 249 247 264 261 216 183 199 225 215 310 278 244 258 260 225 237 235 225 217 199 219 198 171 172 176 187 191
338 336 334 333 334 334 333 331 332 333 331 329 329 330 332 333 333 334 335 334 332 334 334 329 327 328 311 203 208 359 332 253 271 273 262 240 208 205 200 203 205 206 202 196 190 177 167 204 227 206 222 253 235 248 271 312 190 217 245 268 277 272 266 282 283 230 210 223 228 272 287 248 229 261 300 256 250 236 231 241 235 235 177 158 179 189 193 197
338 335 333 332 333 333 331 331 332 331 329 327 325 324 327 328 328 330 332 333 332 330 330 325 319 316 256 194 105 348 265 249 269 263 240 221 206 200 199 201 203 205 206 210 206 190 164 207 226 197 208 242 250 274 270 287 251 227 232 268 292 288 287 301 295 257 235 238 191 225 262 252 244 295 282 259 253 243 228 233 237 234 218 188 188 194 196 201
337 335 334 334 335 335 333 333 332 332 330 325 322 321 322 323 322 323 326 328 330 328 328 320 308 296 231 194 108 272 263 260 268 249 228 217 205 201 202 204 205 203 206 217 217 209 191 203 216 174 185 240 252 267 253 202 236 236 253 287 281 282 292 287 282 269 244 248 191 206 255 267 255 211 264 260 245 224 222 234 234 219 226 214 196 199 198 202
339 339 338 338 339 337 336 335 334 333 329 326 323 320 320 320 316 315 318 321 322 322 321 314 300 264 208 170 144 229 263 263 260 247 225 215 208 210 209 209 208 205 210 224 230 226 215 212 185 128 198 243 257 286 282 240 258 302 348 316 287 298 308 275 273 271 247 254 205 191 259 284 259 190 246 254 233 168 206 233 237 218 229 223 208 207 199 208
341 342 341 342 342 341 340 338 337 335 330 327 323 321 323 319 313 308 308 310 311 312 308 303 284 233 202 188 212 240 259 259 255 248 229 217 211 215 213 213 215 212 213 224 245 236 225 221 160 153 235 231 294 297 273 268 332 298 32 318 288 324 309 273 272 258 218 226 182 147 295 283 234 221 241 252 253 244 228 238 240 226 231 229 219 214 207 216
343 343 344 344 344 343 342 340 340 336 332 329 325 325 324 317 311 303 300 299 298 298 289 281 259 216 189 253 241 243 250 249 249 245 229 220 214 217 216 216 223 223 220 226 251 243 222 217 178 186 232 200 254 273 248 342 349 275 31 259 282 336 297 268 266 240 217 200 152 128 285 269 248 239 240 252 254 244 243 245 240 232 233 231 226 221 222 220
343 342 343 344 344 343 341 341 340 337 334 330 328 328 325 318 309 297 292 290 288 285 273 257 226 190 169 250 259 251 245 240 238 235 225 215 208 212 217 216 223 225 224 232 243 246 226 210 168 178 260 191 234 303 344 339 309 264 306 245 264 304 276 271 248 185 200 197 152 136 237 257 265 261 241 246 248 221 231 244 238 236 235 234 230 225 231 225
340 339 341 342 343 343 341 340 339 337 333 329 328 329 326 320 308 294 283 277 275 268 254 220 189 161 84 269 266 260 239 231 232 233 228 217 206 206 212 207 209 209 213 227 230 229 209 181 137 147 275 257 147 314 328 324 296 218 248 280 266 206 259 282 266 194 197 224 156 146 224 257 264 270 254 242 241 206 221 242 239 238 236 235 236 228 235 235
335 336 339 342 343 343 340 338 338 336 332 327 327 328 327 320 305 289 275 266 261 246 213 180 186 178 327 277 262 258 228 221 232 230 222 214 211 209 196 184 184 188 199 214 206 192 169 142 144 166 218 279 129 144 8 337 305 283 199 246 259 225 259 291 286 232 184 169 186 190 223 258 260 273 275 260 240 210 216 240 241 239 237 233 238 235 236 242
331 334 337 341 343 342 339 338 338 335 330 326 325 326 326 317 297 284 276 256 237 207 183 167 173 181 252 272 271 268 217 208 217 209 202 205 206 192 166 160 178 183 175 182 175 165 151 137 197 176 197 232 154 123 72 285 269 284 225 232 253 242 250 271 289 298 150 152 205 219 231 251 255 271 288 290 252 212 214 233 240 241 241 234 236 240 239 241
327 331 336 341 343 341 340 341 342 338 331 325 324 325 321 309 290 284 254 167 134 131 196 252 75 157 253 247 236 232 180 191 197 192 197 198 195 183 169 164 167 154 115 42 192 158 170 211 149 206 301 220 175 140 175 234 232 229 225 225 252 248 246 253 265 249 159 175 207 219 237 251 258 265 272 274 257 223 224 229 238 241 241 238 235 238 240 242
326 330 334 340 342 342 342 344 344 340 332 326 328 327 317 309 300 277 143 144 128 107 215 223 177 170 245 232 211 182 148 168 176 187 197 190 188 188 187 197 136 133 119 77 234 178 163 108 96 174 245 222 201 183 205 227 223 223 235 233 242 249 253 254 260 221 178 192 210 216 233 242 252 256 256 262 257 243 241 238 244 246 246 245 241 241 241 242
326 328 331 338 341 342 345 346 345 342 337 334 339 339 332 351 350 353 111 170 212 229 253 200 192 222 277 244 157 151 151 161 179 199 193 184 178 175 189 202 97 135 177 164 198 188 157 171 174 199 225 224 210 204 219 233 235 244 253 255 251 253 263 258 264 247 183 192 219 217 235 240 246 253 249 254 262 257 249 242 245 246 247 249 247 250 248 244
323 324 327 332 335 341 347 347 345 347 349 349 352 352 37 57 311 300 326 270 251 250 258 236 213 230 254 226 159 162 159 184 235 217 189 179 162 157 189 167 143 217 208 169 196 233 163 189 208 215 226 229 216 211 224 235 241 249 250 258 261 251 263 260 257 257 188 197 241 229 243 248 247 254 253 249 250 254 250 241 244 244 244 249 251 253 253 249
315 318 322 325 328 337 345 346 348 1 4 4 8 18 63 18 332 286 302 287 275 253 249 250 238 238 247 247 207 177 159 225 246 224 183 175 161 178 189 161 184 207 177 158 243 261 218 220 224 221 229 241 237 218 222 232 232 243 247 256 262 252 271 267 246 256 197 192 248 243 246 254 251 255 258 250 237 243 249 242 244 247 245 250 251 253 254 254
306 310 316 318 322 330 340 343 351 12 3 1 11 25 9 354 343 326 229 273 289 260 238 237 238 235 233 246 219 177 192 220 229 220 181 172 176 194 172 180 202 179 145 182 209 228 233 230 224 222 226 238 246 236 228 246 243 239 242 249 258 253 268 268 246 253 223 210 250 258 259 257 258 267 261 249 241 241 249 249 249 251 249 249 251 255 258 254
300 305 308 312 317 324 335 339 349 1 351 353 16 14 357 349 340 348 293 258 277 257 239 223 223 222 220 229 196 184 216 215 210 213 180 172 160 170 186 193 191 178 194 203 208 228 243 229 201 209 217 226 241 241 225 247 258 243 231 229 249 249 245 254 267 298 290 279 280 282 288 270 231 250 256 249 246 245 248 252 254 255 252 252 254 258 259 254
296 299 300 308 311 318 330 336 348 348 343 357 34 0 355 348 335 0 5 284 279 273 269 230 213 224 221 213 182 182 236 228 215 201 175 176 163 149 210 183 173 216 216 213 221 240 252 228 183 201 217 223 234 241 213 209 252 258 224 212 235 245 245 253 278 317 316 296 276 208 283 277 203 220 247 252 250 249 243 243 248 252 253 254 255 254 255 254
285 289 296 301 302 315 329 335 335 340 345 34 2 346 346 342 329 342 29 314 277 255 272 207 188 212 209 190 165 143 0 270 238 161 165 182 181 156 198 178 195 231 202 206 237 248 245 215 191 203 216 218 225 243 214 196 236 268 228 207 224 236 248 257 267 286 262 263 273 134 226 277 245 211 237 240 240 249 245 238 242 246 251 252 249 250 253 249
279 279 285 290 296 310 324 320 324 336 357 325 331 334 334 334 321 309 6 326 280 190 142 222 330 165 180 179 148 127 239 256 77 100 155 180 188 153 206 207 196 217 163 160 258 243 216 202 196 212 218 215 222 243 216 184 214 265 232 195 211 226 243 247 232 227 233 266 292 127 136 282 280 233 207 213 221 242 249 246 246 242 245 251 249 252 253 235
286 282 279 277 288 297 293 301 316 325 309 316 328 330 331 327 304 13 65 287 276 112 122 250 326 10 20 329 173 140 217 296 84 319 339 95 175 133 213 218 185 195 165 162 232 248 181 184 204 207 208 214 223 231 193 168 206 251 184 171 178 197 220 185 191 226 281 335 282 196 134 278 279 247 188 208 214 229 244 242 243 239 238 248 249 252 256 232
280 278 275 270 272 276 276 283 290 290 299 321 333 331 334 313 285 65 92 247 278 63 75 28 206 294 20 37 283 178 32 12 94 280 343 14 299 69 203 220 171 233 254 198 233 265 167 195 196 168 181 216 218 213 172 174 218 232 115 97 70 70 56 79 145 167 43 307 251 193 155 208 277 270 178 177 202 215 233 235 238 234 232 245 248 252 259 242
274 268 268 260 252 255 262 262 261 273 296 319 331 323 311 295 61 75 240 247 315 300 206 84 221 216 100 120 257 261 224 330 11 348 2 49 344 12 206 223 95 244 283 276 259 258 239 170 178 160 187 199 146 100 139 169 218 122 94 57 29 12 22 47 16 72 50 277 230 182 180 186 269 286 154 159 198 199 209 224 241 242 236 245 247 249 255 245
274 271 262 250 240 237 224 241 255 258 271 310 330 323 266 323 77 151 234 238 347 270 154 171 244 105 131 162 221 235 197 257 82 124 187 61 11 15 32 312 65 50 327 297 277 261 252 249 215 213 181 135 110 101 359 12 58 93 96 74 22 330 8 25 355 56 219 265 214 182 186 187 234 274 136 220 232 190 201 208 223 236 237 242 246 248 250 239
267 269 262 251 241 229 216 239 244 209 238 312 335 335 118 57 215 218 242 344 346 234 170 188 189 140 199 228 302 205 175 203 179 161 172 161 165 198 205 208 161 70 290 254 275 285 260 231 204 198 195 156 135 120 347 349 37 106 108 105 61 297 343 355 310 215 222 255 228 194 185 203 240 252 235 271 276 207 207 207 212 223 231 237 241 247 249 230
263 266 261 251 241 230 227 235 222 200 240 334 32 31 83 167 236 224 211 261 243 215 143 161 167 154 155 101 273 216 180 222 191 169 181 154 172 243 262 241 189 197 254 223 282 309 286 274 185 155 281 184 156 177 236 271 185 165 150 148 176 213 252 263 257 261 262 264 251 203 176 238 277 271 221 233 241 224 205 208 217 217 225 230 228 243 251 213
261 261 259 253 244 237 232 228 221 219 229 126 119 89 130 207 248 273 153 218 249 297 359 60 112 158 153 185 226 189 183 252 176 160 188 139 154 239 253 244 220 220 233 208 280 194 249 291 193 163 229 184 176 205 210 169 156 179 153 143 175 179 183 224 242 255 276 286 274 191 162 224 277 265 218 217 237 236 209 212 219 218 230 231 228 248 252 197
260 253 256 250 238 233 227 220 221 218 196 136 114 131 189 219 244 269 225 243 293 334 313 331 90 178 247 263 250 205 207 252 167 147 178 170 182 208 202 211 207 195 142 201 255 178 219 271 223 168 170 165 179 219 197 125 82 213 125 117 207 200 194 232 267 248 246 309 286 210 201 235 235 255 247 235 260 256 220 223 221 226 239 235 238 247 232 192
263 249 248 236 229 228 221 215 216 205 175 132 126 184 215 228 221 207 229 266 44 10 326 327 44 188 265 283 264 245 224 237 194 143 198 207 199 206 203 203 196 190 183 192 229 210 232 276 247 144 10 158 178 238 173 149 204 187 120 182 212 165 166 221 286 302 83 275 275 224 233 279 305 279 251 232 250 245 229 230 221 229 235 229 236 237 213 203
260 240 227 223 228 227 217 214 206 187 166 137 168 205 232 246 236 229 269 39 100 50 24 349 306 261 269 276 274 259 241 241 201 165 204 221 222 209 206 223 195 190 200 208 232 243 237 271 260 177 237 261 187 107 13 334 133 130 172 220 203 76 109 156 235 324 315 260 269 263 260 280 297 283 292 342 263 250 243 237 224 229 231 228 235 229 207 206
265 236 236 237 236 224 212 208 192 168 147 156 199 219 229 229 219 218 256 289 244 61 83 162 265 309 328 321 329 328 300 278 213 185 224 231 236 189 175 227 210 194 209 216 231 269 239 256 268 181 204 303 18 102 317 335 97 132 204 228 109 146 238 157 167 232 251 252 269 277 277 277 255 258 289 283 243 232 231 229 226 230 230 232 238 233 223 215
271 244 271 254 237 219 203 193 175 151 141 180 205 225 224 236 241 218 243 284 125 139 185 194 202 277 338 292 306 342 329 304 345 342 306 258 255 235 161 243 247 217 218 212 214 245 227 237 257 19 11 312 5 115 201 253 2 69 359 343 35 178 186 185 178 169 227 249 265 277 283 280 246 237 259 246 230 222 222 225 229 230 231 237 236 230 226 219
260 248 278 187 201 198 185 172 156 148 190 186 205 224 226 251 259 236 228 220 187 208 228 205 183 202 245 248 251 270 288 281 299 318 297 292 301 308 307 287 334 293 245 213 222 247 257 249 250 336 356 266 233 199 178 184 204 197 233 263 272 239 179 250 242 162 219 244 252 260 272 275 260 221 239 243 232 223 216 215 228 227 229 240 239 230 219 211
251 257 234 158 175 174 162 152 155 178 193 206 218 225 232 243 253 240 223 207 216 252 245 210 205 217 226 235 247 243 232 252 252 237 238 251 267 283 280 183 130 346 330 115 213 243 167 237 246 252 268 241 244 227 192 194 192 177 195 208 210 218 233 268 256 222 217 238 243 247 257 267 270 226 226 241 229 225 217 210 226 228 226 237 238 233 225 212
237 252 178 168 171 162 149 159 214 182 192 211 213 211 200 210 239 248 224 196 206 230 252 224 222 228 226 229 244 243 230 240 239 229 227 231 236 241 241 230 197 89 46 199 209 212 168 177 243 248 228 240 257 249 211 219 206 172 203 205 202 205 206 237 245 237 238 236 236 249 251 257 266 278 251 245 221 220 219 207 221 234 232 237 241 246 248 235
224 257 163 172 172 162 154 220 203 201 222 214 224 213 179 189 220 232 226 205 198 201 206 216 216 221 225 223 225 230 228 222 222 227 235 237 239 239 238 244 252 315 36 252 239 215 170 164 230 252 266 293 297 298 276 232 154 205 251 215 210 219 214 225 236 238 251 243 234 249 251 253 263 262 274 277 245 227 226 211 218 235 234 232 235 242 245 237
235 276 214 184 180 173 173 221 204 223 229 232 249 228 206 209 215 228 235 214 188 190 209 219 217 219 222 216 213 215 214 216 220 225 230 231 234 237 236 242 250 247 194 226 253 247 232 205 209 236 259 289 304 297 283 265 182 217 244 224 223 229 225 232 243 224 243 243 238 249 254 249 256 260 280 305 293 267 263 253 245 250 252 250 250 247 243 244
270 251 272 200 195 194 212 216 217 232 223 230 241 233 235 239 212 226 239 232 210 196 207 227 226 224 221 216 226 226 216 221 230 222 218 221 232 238 236 234 239 240 225 203 185 220 241 219 200 223 236 234 236 240 244 244 218 213 239 234 227 221 214 219 234 229 235 236 232 242 252 249 262 283 288 287 284 281 279 281 287 287 281 282 284 280 276 274
294 247 233 201 207 227 262 236 232 236 225 231 240 231 234 240 234 228 232 239 235 218 224 249 241 222 215 212 231 240 230 229 234 228 224 229 234 238 225 218 227 239 230 191 157 151 214 212 215 224 229 231 234 236 234 212 199 212 235 238 230 221 217 217 225 231 236 241 236 238 248 254 265 280 281 279 277 274 269 268 273 275 274 275 269 270 274 266
268 257 237 209 205 222 235 243 240 234 229 230 227 216 228 236 243 226 207 218 225 219 230 240 220 221 223 218 229 238 234 232 231 235 242 239 242 254 230 204 220 233 222 184 165 165 184 217 220 223 229 232 236 242 247 250 246 241 245 249 247 238 222 216 227 234 235 246 247 240 245 254 254 254 263 269 269 269 267 265 265 263 264 267 257 246 254 256
259 268 286 317 311 230 226 243 258 260 252 241 229 230 242 243 239 226 214 223 222 207 212 228 220 224 230 230 237 241 237 240 239 237 242 242 245 258 253 228 224 219 203 185 179 175 212 234 224 224 230 230 232 240 245 248 250 248 251 256 256 250 235 226 234 238 234 239 249 251 251 252 250 247 253 260 265 269 270 270 269 268 263 261 255 239 243 252
288 277 299 328 320 278 285 310 317 306 288 275 263 226 248 259 255 254 263 272 248 209 208 228 224 221 226 229 232 236 231 236 240 233 231 234 234 242 252 249 239 209 187 197 202 182 212 235 223 227 234 231 231 237 240 243 249 250 249 251 253 254 249 241 241 243 243 246 251 255 255 253 252 251 252 255 262 270 276 277 274 271 265 261 258 250 251 258
284 276 307 337 305 283 295 301 308 308 296 288 275 250 257 269 270 277 281 254 278 261 229 245 250 244 246 243 240 244 242 246 255 255 256 254 240 237 251 255 262 237 194 210 225 194 211 228 220 225 240 237 233 236 237 239 242 243 245 246 249 253 253 250 250 250 251 254 252 250 252 254 252 251 253 256 263 272 280 279 273 268 266 265 262 259 260 267
279 313 327 316 287 274 276 278 293 302 281 254 247 260 272 271 280 300 290 242 248 263 262 279 293 298 294 284 275 277 287 296 297 301 314 308 288 283 280 269 285 286 224 219 238 204 210 234 231 230 244 237 229 233 236 236 237 239 242 245 246 247 248 249 249 246 246 250 252 250 250 251 248 250 254 259 264 268 270 271 270 270 269 268 265 264 263 258
303 330 340 318 281 263 264 288 294 284 272 263 273 293 293 300 335 339 312 262 253 288 317 335 330 325 311 299 304 316 320 317 308 307 306 294 284 281 276 272 267 259 234 225 246 215 205 231 231 227 244 241 229 232 236 236 238 237 232 234 239 242 246 247 247 246 243 244 249 249 247 248 251 253 258 260 260 259 258 259 262 266 269 271 270 266 252 240